Kuchera_Ratio
0.0 0.0 0.0 0.0 0.0 0.0 0.0 0.0 0.0 0.0 0.0 0.0 0.0 0.0 0.0 0.0 0.0 0.0 0.0 0.0 0.0 0.0 0.0 0.0 0.0 0.0 0.0
0.0 0.0 0.0 0.0 0.0 0.0 0.0 0.0 0.0 0.0 0.0 0.0 0.0 0.0 0.0 0.0 0.0 0.0 0.0 0.0 0.0 0.0 0.0 0.0 0.0 0.0 0.0
0.0 0.0 0.0 0.0 0.0 0.0 0.0 0.0 0.0 0.0 0.0 0.0 0.0 0.0 0.0 0.0 0.0 0.0 0.0 0.0 0.0 0.0 0.0 0.0 0.0 0.0 0.0
0.0 0.0 0.0 0.0 0.0 0.0 0.0 0.0 0.0 0.0 0.0 0.0 0.0 0.0 0.0 0.0 0.0 0.0 0.0 0.0 0.0 0.0 0.0 0.0 0.0 0.0 0.0
0.0 0.0 0.0 0.0 0.0 0.0 0.0 0.0 0.0 0.0 0.0 0.0 0.0 0.0 0.0 0.0 0.0 0.0 0.0 0.0 0.0 0.0 0.0 0.0 0.0 0.0 0.0
0.0 0.0 0.0 0.0 0.0 0.0 0.0 0.0 0.0 0.0 0.0 0.0 0.0 0.7 0.0 0.0 0.0 0.0 0.0 0.0 0.0 0.0 0.0 0.0 0.0 0.0 0.0
0.0 0.0 0.0 0.0 0.0 0.0 0.0 0.0 0.0 0.0 0.0 0.0 0.5 1.0 0.0 0.0 0.0 0.0 0.0 0.0 0.0 0.0 0.0 0.0 0.0 0.0 0.0
0.0 0.0 0.0 0.0 0.0 0.0 0.0 0.0 0.0 0.0 0.0 0.0 0.9 1.4 0.7 0.0 0.0 0.0 0.0 0.0 0.0 0.0 0.0 0.0 0.0 0.0 0.0
0.0 0.0 0.0 0.0 0.0 0.0 0.0 0.0 0.0 0.0 0.0 0.9 1.3 1.9 3.5 3.1 1.3 0.0 0.0 0.0 0.0 0.0 0.0 0.0 0.0 0.0 7.5
0.0 0.0 0.0 0.0 0.0 0.0 0.0 0.0 0.0 0.0 0.0 1.0 1.2 3.0 4.5 4.8 4.3 3.7 3.2 0.0 0.0 0.0 0.0 0.0 0.0 6.8 8.6
0.0 0.0 0.0 0.0 0.0 0.0 0.0 0.0 0.0 0.0 0.0 0.2 1.4 2.9 4.9 5.9 7.4 5.3 5.0 5.2 6.1 7.3 2.5 1.7 0.6 3.3 9.2
0.0 0.0 0.0 0.0 0.0 0.0 0.0 0.0 0.0 0.0 0.0 1.1 0.1 2.2 4.1 6.3 7.8 7.8 7.2 7.3 7.7 9.6 10.0 6.6 4.8 3.8 2.3
0.0 0.0 0.0 0.0 0.0 0.0 0.0 0.2 0.4 0.3 1.0 3.9 0.8 2.5 4.6 5.7 7.1 9.7 11.3 10.8 10.0 11.7 12.0 12.3 12.6 12.2 12.5
0.0 0.0 0.0 0.0 0.0 0.0 0.0 0.6 2.1 4.1 5.0 6.3 4.2 5.5 6.3 8.0 9.2 9.8 11.1 11.7 12.3 12.2 12.2 12.8 12.6 12.4 12.4
0.0 0.0 0.0 0.0 0.0 0.0 0.7 1.6 2.9 4.8 7.3 6.6 8.1 8.2 9.3 9.9 10.9 11.4 11.9 12.5 12.5 12.3 12.5 12.4 13.6 12.9 12.9
0.0 0.0 0.0 0.0 0.5 0.0 3.2 3.7 4.8 6.6 8.3 10.3 9.4 10.0 12.0 12.5 9.4 12.7 12.8 13.1 13.1 13.2 13.5 13.1 12.5 13.6 13.5
0.0 0.0 0.0 0.0 2.4 2.3 4.0 5.3 8.1 9.3 11.4 11.4 9.7 11.3 12.0 12.7 13.1 8.3 13.6 13.9 13.7 14.0 14.7 15.0 15.0 14.5 13.8